Location: ?????
(33.6267°N, 35.4675°E)
Time: 07:32:01
(UTC+00:00)

Cosmos 1725 Rocket - Pass Details

Date: 12 November 2019
Orbit: 962 x 990 km, 82.9° (Epoch: 13 December)

Event Time Altitude Azimuth Distance (km) Brightness Sun altitude
Rises 14:52:09 0° 355° (N) 3,708 6.9 -3.7°
Reaches altitude 10° 14:54:41 10° 356° (N) 2,756 6.2 -4.2°
Maximum altitude 15:01:02 81° 84° (E) 1,004 4.0 -5.5°
Drops below altitude 10° 15:07:19 10° 172° (S) 2,732 6.5 -6.7°
Sets 15:09:49 0° 173° (S) 3,673 7.1 -7.2°
